Guymon, OK

8:24 PM CDT on April 24, 2018 (GMT -0500)
Guymon Municipal

Weather History for KGUY - March, 2013

Change the Weather History Date:

Saturday, March 23, 2013

  Actual Average Record
Temperature  
Mean Temperature 32 °F 48 °F  
Max Temperature 40 °F 63 °F 92 °F (2018)
Min Temperature 23 °F 34 °F 23 °F (2013)
Degree Days  
Heating Degree Days 33 17  
Month to date heating degree days 415 458  
Since 1 July heating degree days 3648 3925  
Cooling Degree Days 0 0  
Month to date cooling degree days 0 0  
Year to date cooling degree days 0 0  
Moisture  
Dew Point 28 °F    
Average Humidity 84    
Maximum Humidity 92    
Minimum Humidity 76    
Precipitation  
Precipitation 0.10 in 0.05 in 0.49 in (2007)
Month to date precipitation 0.13 1.03  
Year to date precipitation 1.69 1.90  
Snow  
Snow 2.50 in - - ()
Month to date snowfall 2.5  
Since 1 July snowfall 22.0  
Snow Depth 0.00 in    
Sea Level Pressure  
Sea Level Pressure 29.88 in    
Wind  
Wind Speed 16 mph (NNE)    
Max Wind Speed 32 mph    
Max Gust Speed 39 mph    
Visibility 5 miles    
Events Fog , Snow    
T = Trace of Precipitation, MM = Missing Value Source: NWS Daily Summary

Daily Weather History Graph

Daily Weather History Graph

Search for Another Location

Airport or City:

Astronomy

Mar. 23, 2013 Rise Set
Actual Time 7:44 AM CDT 8:00 PM CDT
Civil Twilight 7:18 AM CDT 8:26 PM CDT
Nautical Twilight 6:48 AM CDT 8:56 PM CDT
Astronomical Twilight 6:18 AM CDT 9:27 PM CDT
Moon 4:34 PM CDT (3/23) 5:16 AM CDT (3/23)
Length of Visible Light 13h 07m
Length of Day
12h 16m
Waxing Gibbous, 85% of the Moon is Illuminated
Mar 23
Waxing Gibbous
Mar 27
Full
Apr 2
Last Quarter
Apr 10
New
Apr 18
First Quarter

Hourly Weather History & Observations

Time (CDT) Temp. Windchill Dew Point Humidity Pressure Visibility Wind Dir Wind Speed Gust Speed Precip Events Conditions
12:53 AM 39.9 °F 32.5 °F 32.0 °F 73% 29.71 in 10.0 mi SE 12.7 mph 20.7 mph N/A   Clear
1:53 AM 37.9 °F 29.6 °F 30.9 °F 76% 29.69 in 10.0 mi SE 13.8 mph - N/A   Clear
2:53 AM 36.0 °F 28.0 °F 30.9 °F 82% 29.68 in 10.0 mi SE 11.5 mph - N/A   Clear
3:53 AM 35.1 °F 26.9 °F 30.0 °F 82% 29.66 in 10.0 mi SE 11.5 mph - N/A   Clear
4:20 AM 35.6 °F 28.6 °F 30.2 °F 81% 29.76 in 10.0 mi North 9.2 mph - N/A   Mostly Cloudy
4:53 AM 37.0 °F 31.0 °F 32.0 °F 82% 29.73 in 10.0 mi East 8.1 mph - N/A   Overcast
5:53 AM 37.0 °F 29.8 °F 32.0 °F 82% 29.73 in 9.0 mi ESE 10.4 mph - N/A   Overcast
6:24 AM 35.6 °F 28.6 °F 32.0 °F 87% 29.77 in 9.0 mi East 9.2 mph - N/A   Overcast
6:53 AM 36.0 °F 28.5 °F 32.0 °F 86% 29.75 in 8.0 mi ESE 10.4 mph - N/A   Overcast
7:53 AM 36.0 °F 30.3 °F 33.1 °F 89% 29.76 in 6.0 mi ESE 6.9 mph - N/A   Overcast
8:26 AM 35.6 °F 31.7 °F 33.8 °F 93% 29.79 in 2.5 mi East 4.6 mph - N/A   Overcast
8:53 AM 36.0 °F 30.3 °F 34.0 °F 93% 29.78 in 2.5 mi East 6.9 mph - N/A   Overcast
9:11 AM 37.4 °F 31.4 °F 33.8 °F 87% 29.80 in 3.0 mi East 8.1 mph - N/A   Overcast
9:53 AM 34.0 °F 23.4 °F 30.9 °F 89% 29.80 in 7.0 mi ENE 17.3 mph - N/A   Overcast
10:09 AM 33.8 °F 24.3 °F 30.2 °F 87% 29.81 in 9.0 mi ENE 13.8 mph - N/A   Overcast
10:53 AM 34.0 °F 24.6 °F 30.9 °F 89% 29.80 in 10.0 mi East 13.8 mph - N/A   Overcast
11:20 AM 33.8 °F 24.3 °F 30.2 °F 87% 29.81 in 10.0 mi ENE 13.8 mph - N/A   Overcast
11:40 AM 33.8 °F 25.3 °F 30.2 °F 87% 29.81 in 10.0 mi ENE 11.5 mph - N/A   Overcast
11:53 AM 34.0 °F 25.0 °F 30.9 °F 89% 29.81 in 10.0 mi ENE 12.7 mph - N/A   Overcast
12:53 PM 33.1 °F 23.9 °F 30.0 °F 89% 29.81 in 9.0 mi East 12.7 mph - N/A   Overcast
1:53 PM 33.1 °F 24.4 °F 30.9 °F 92% 29.80 in 9.0 mi NE 11.5 mph - N/A   Overcast
2:53 PM 33.1 °F 23.0 °F 30.9 °F 92% 29.80 in 7.0 mi NE 15.0 mph - N/A   Overcast
3:53 PM 33.1 °F 22.2 °F 30.9 °F 92% 29.78 in 5.0 mi NNE 17.3 mph - N/A   Overcast
4:11 PM 32.0 °F 20.8 °F 30.2 °F 93% 29.76 in 2.5 mi NE 17.3 mph 26.5 mph 0.00 in Snow Light Snow
4:18 PM 32.0 °F 20.8 °F 30.2 °F 93% 29.76 in 4.0 mi NE 17.3 mph - 0.00 in Snow Light Snow
4:53 PM 32.0 °F 19.8 °F 28.9 °F 88% 29.75 in 10.0 mi NE 20.7 mph 29.9 mph 0.00 in   Overcast
5:24 PM 32.0 °F 20.5 °F 28.4 °F 87% 29.86 in 1.8 mi NNW 18.4 mph - 0.01 in Snow Light Snow
5:36 PM 30.2 °F 16.8 °F 28.4 °F 93% 29.82 in 0.8 mi North 23.0 mph 29.9 mph 0.02 in Snow Light Snow
5:53 PM 30.0 °F 17.2 °F 28.0 °F 92% 29.90 in 0.2 mi North 20.7 mph 25.3 mph 0.05 in Fog Light Freezing Fog
6:08 PM 30.2 °F 18.9 °F 28.4 °F 93% 29.88 in 0.2 mi North 16.1 mph 29.9 mph 0.01 in Fog Light Freezing Fog
6:26 PM 30.2 °F 17.8 °F 28.4 °F 93% 29.87 in 0.5 mi North 19.6 mph 26.5 mph 0.04 in Fog Light Freezing Fog
6:53 PM 28.9 °F 14.0 °F 27.0 °F 92% 29.93 in 1.0 mi North 27.6 mph 34.5 mph 0.05 in   Overcast
7:03 PM 28.4 °F 14.1 °F 26.6 °F 93% 29.92 in 1.5 mi North 24.2 mph 32.2 mph N/A   Overcast
7:08 PM 28.4 °F 14.7 °F 26.6 °F 93% 29.92 in 2.0 mi North 21.9 mph - N/A   Overcast
7:18 PM 28.4 °F 14.1 °F 24.8 °F 86% 29.93 in 5.0 mi North 24.2 mph 31.1 mph N/A   Overcast
7:27 PM 28.4 °F 14.4 °F 24.8 °F 86% 29.94 in 4.0 mi North 23.0 mph 28.8 mph N/A   Overcast
7:33 PM 28.4 °F 14.7 °F 24.8 °F 86% 29.95 in 2.5 mi North 21.9 mph - N/A   Overcast
7:40 PM 28.4 °F 15.1 °F 24.8 °F 86% 29.96 in 3.0 mi North 20.7 mph 31.1 mph N/A   Overcast
7:49 PM 28.4 °F 14.7 °F 24.8 °F 86% 29.96 in 1.8 mi North 21.9 mph 31.1 mph N/A   Overcast
7:50 PM 28.0 °F 14.3 °F 25.0 °F 88% 30.00 in 1.5 mi North 21.9 mph 31.1 mph N/A   Overcast
8:04 PM 28.4 °F 14.4 °F 24.8 °F 86% 29.98 in 2.0 mi North 23.0 mph 32.2 mph N/A   Overcast
8:14 PM 28.4 °F 14.7 °F 24.8 °F 86% 29.99 in 3.0 mi North 21.9 mph 28.8 mph N/A   Overcast
8:24 PM 26.6 °F 10.3 °F 24.8 °F 93% 29.99 in 1.8 mi NNW 29.9 mph 35.7 mph N/A   Overcast
8:35 PM 26.6 °F 12.0 °F 23.0 °F 86% 30.01 in 3.0 mi North 23.0 mph 33.4 mph N/A   Overcast
8:46 PM 26.6 °F 11.1 °F 23.0 °F 86% 30.01 in 3.0 mi NNW 26.5 mph 34.5 mph N/A   Overcast
8:53 PM 26.1 °F 11.6 °F 23.0 °F 88% 30.06 in 3.0 mi NNW 21.9 mph 33.4 mph N/A   Overcast
9:11 PM 26.6 °F 10.6 °F 21.2 °F 80% 30.04 in 2.5 mi NNW 28.8 mph 36.8 mph N/A   Overcast
9:53 PM 25.0 °F 8.9 °F 21.0 °F 85% 30.11 in 2.0 mi NNW 26.5 mph 34.5 mph N/A   Overcast
10:13 PM 24.8 °F 8.4 °F 21.2 °F 86% 30.08 in 1.8 mi NNW 27.6 mph 39.1 mph N/A   Overcast
10:25 PM 24.8 °F 8.4 °F 21.2 °F 86% 30.08 in 2.0 mi NNW 27.6 mph 36.8 mph N/A   Overcast
10:48 PM 24.8 °F 9.0 °F 21.2 °F 86% 30.09 in 4.0 mi NNW 25.3 mph - N/A   Overcast
10:53 PM 25.0 °F 9.5 °F 19.9 °F 81% 30.14 in 5.0 mi NNW 24.2 mph 35.7 mph N/A   Haze
11:53 PM 24.1 °F 8.0 °F 19.0 °F 81% 30.16 in 10.0 mi NNW 25.3 mph 32.2 mph N/A   Clear